{"data":{"norad_id":58062,"intl_designator":"2023-158M","name":"STARLINK-30588","alt_names":[],"object_type":"PAYLOAD","status":"ACTIVE","operator":null,"country":"US","launch_date":"2023-10-13","launch_site_code":"AFETR","launch_vehicle":null,"mission":null,"orbit_class":"UNKNOWN","rcs_meters":null,"size_class":null,"mass_kg":null,"dimensions":null,"purposes":["comms"],"wikipedia_slug":null,"has_3d_model":false,"image_url":null,"decayed_at":null,"tle_current":{"epoch":"2026-05-24T19:42:28.043424Z","epoch_age_seconds":84455,"freshness":"FRESH","line1":"1 58062U 23158M   26144.82115791  .00000467  00000+0  26514-4 0  9999","line2":"2 58062  43.0020 317.0636 0001288 265.9842  94.0863 15.27577349145216","mean_motion":15.27577349,"eccentricity":0.0001288,"inclination_deg":43.002,"raan_deg":317.0636,"arg_perigee_deg":265.9842,"mean_anomaly_deg":94.0863,"bstar":2.6514e-5,"rev_number":14521,"period_min":94.266912306776,"perigee_km":482.17331230723,"apogee_km":483.94075589042,"semimajor_km":6861.1940340988,"source":"CELESTRAK","updated_at":"2026-05-25T13:38:18.500945Z"}}}